TimeMDT,TemperatureF,Dew PointF,Humidity,Sea Level PressureIn,VisibilityMPH,Wind Direction,Wind SpeedMPH,Gust SpeedMPH,PrecipitationIn,Events,Conditions,WindDirDegrees,DateUTC
12:53 AM,71.1,50.0,47,30.10,10.0,ESE,16.1,-,N/A,,Clear,120,2013-07-27 06:53:00
1:53 AM,70.0,51.1,51,30.09,10.0,ESE,8.1,-,N/A,,Clear,110,2013-07-27 07:53:00
2:53 AM,68.0,51.1,55,30.09,10.0,East,8.1,-,N/A,,Clear,100,2013-07-27 08:53:00
3:53 AM,66.9,51.1,57,30.09,10.0,East,9.2,-,N/A,,Clear,100,2013-07-27 09:53:00
4:53 AM,66.0,48.9,54,30.09,10.0,Calm,Calm,-,N/A,,Clear,0,2013-07-27 10:53:00
5:53 AM,64.9,50.0,58,30.08,10.0,ESE,5.8,-,N/A,,Clear,110,2013-07-27 11:53:00
6:53 AM,64.9,52.0,63,30.11,10.0,East,5.8,-,N/A,,Clear,90,2013-07-27 12:53:00
7:53 AM,68.0,52.0,56,30.11,10.0,East,6.9,-,N/A,,Clear,90,2013-07-27 13:53:00
8:53 AM,71.1,52.0,51,30.11,10.0,East,11.5,-,N/A,,Clear,100,2013-07-27 14:53:00
9:53 AM,73.0,52.0,48,30.09,10.0,ESE,6.9,-,N/A,,Clear,110,2013-07-27 15:53:00
10:53 AM,77.0,52.0,42,30.06,10.0,ESE,8.1,-,N/A,,Clear,120,2013-07-27 16:53:00
11:53 AM,79.0,51.1,38,30.03,10.0,Variable,4.6,-,N/A,,Clear,0,2013-07-27 17:53:00
12:53 PM,82.9,51.1,33,29.99,10.0,Variable,4.6,-,N/A,,Clear,0,2013-07-27 18:53:00
1:53 PM,86.0,48.9,28,29.95,10.0,WSW,6.9,-,N/A,,Partly Cloudy,250,2013-07-27 19:53:00
2:53 PM,88.0,46.0,23,29.91,10.0,Variable,5.8,-,N/A,,Clear,0,2013-07-27 20:53:00
3:53 PM,90.0,46.0,22,29.86,10.0,West,11.5,20.7,N/A,,Partly Cloudy,270,2013-07-27 21:53:00
4:53 PM,90.0,46.0,22,29.84,10.0,West,8.1,19.6,N/A,,Clear,280,2013-07-27 22:53:00
5:53 PM,87.1,44.1,22,29.84,10.0,WNW,10.4,-,N/A,,Clear,290,2013-07-27 23:53:00
6:53 PM,84.9,45.0,25,29.83,10.0,West,13.8,21.9,N/A,,Partly Cloudy,260,2013-07-28 00:53:00
7:53 PM,80.1,48.0,32,29.85,10.0,West,17.3,24.2,N/A,,Mostly Cloudy,270,2013-07-28 01:53:00
8:53 PM,79.0,50.0,36,29.86,10.0,West,11.5,-,N/A,,Scattered Clouds,280,2013-07-28 02:53:00
9:53 PM,77.0,52.0,42,29.89,10.0,West,13.8,21.9,N/A,,Overcast,270,2013-07-28 03:53:00
10:53 PM,73.9,52.0,46,29.90,10.0,SW,8.1,-,0.00,,Overcast,230,2013-07-28 04:53:00
11:53 PM,73.0,52.0,48,29.90,10.0,WSW,5.8,-,N/A,,Mostly Cloudy,250,2013-07-28 05:53:00